SL-8 R/B

Satellite information

Favourite Embed

Satellite Type and Status

ROCKET BODYIN ORBIT

Key statistics

Satellite SL-8 R/B at a glance.

Uptime

17533

Days in orbit

Revolutions

≈ 13.8

Per day

Orbit

LEO

Low Earth Orbit

Inclination

82.9

Latest

Satellite identification and parameters

Extended collection of information and parameters for SL-8 R/B.

Object identification

Identified? True

Debris? False

Object name: SL-8 R/B

International designator: 1977-107B

Object number (NORAD): 10461

Object ID (CCSDS): 10461

Country: COMMONWEALTH OF INDEPENDENT STATES (CIS)

Current information (Y/N): Y

RCS size: LARGE

Orbital parameters

Period: 104.567 minutes

Inclination: 82.9462 deg

SMA: 7352.284 km

Apoapsis: 997.628 km

Periapsis: 950.67 km

RAAN: 264.8924 deg

Eccentricy: 0.00319346

Argument of periapsis: 235.5753 deg

Mean anomaly: 240.8605 deg

Mean motion: 13.77112198 rev/day

Mean motion (dot): 0.00000093 rev/day2

B* drag term: 0.000078929477 1/REarth

Two-line elements (TLE)

Creation date: Oct. 28, 2025, 7:11 p.m.

Reference frame: TEME

Reference center: EARTH

Epoch: Oct. 28, 2025, 10:15 a.m. UTC

TLE line 0: 0 SL-8 R/B

TLE line 1: 1 10461U 77107B 25301.42776032 .00000093 00000-0 78929-4 0 9997

TLE line 2: 2 10461 82.9462 264.8924 0031935 235.5753 240.8605 13.77112198410933

Live tracking on map

Real-time ground track for satellite SL-8 R/B.

In-orbit conjunctions

A list of the most updated potential collisions computed for object SL-8 R/B.

Target Orbit TCA Probability of collision Miss distance Type
NIMBUS 2 DEB SSO 2024-12-28 07:31:22 0.0003903262 42.0 (m) DEBRIS

Associated space launch

Molniya communication satellites operating from a highly elliptical orbit

SL-8 R/B was lifted into orbit during the mission ‘Molniya-M | Molniya-3 18L’, on board a Molniya-M space rocket.

The launch took place on Oct. 28, 1977, 1:37 a.m. from 43/3 (43L).

For more information about the launch, click the button.

Launch to space Molniya-M | Molniya-3 18L
Molniya-M | Molniya-3 18L

Agency: N/A

Status: Launch Successful

Launch date: Oct. 28, 1977, 1:37 a.m. UTC

Rocket: Molniya-M

Launch pad: 43/3 (43L)

Location: Plesetsk Cosmodrome, Russian Federation

...

Latest news about this satellite

There are no fresh news available about this satellite. Check back as we update our databases every day.


Newsletter sign-up

Weekly statistics, charts and insights to help you stay on top of the space industry.